Time,TemperatureF,DewpointF,PressureIn,WindDirection,WindDirectionDegrees,WindSpeedMPH,WindSpeedGustMPH,Humidity,HourlyPrecipIn,Conditions,Clouds,dailyrainin,SolarRadiationWatts/m^2,SoftwareType,DateUTC
2013-05-13 00:11:00,65.0,49.0,-100.00,East,79,2.0,7.0,54,-99.99,,,0.00,0.000000,,2013-05-13 07:11:00,
2013-05-13 01:11:00,64.0,50.0,-100.00,NW,311,2.0,5.0,59,-99.99,,,0.00,0.000000,,2013-05-13 08:11:00,
2013-05-13 02:11:00,65.0,49.0,-100.00,South,180,2.0,6.0,55,-99.99,,,-99.99,0.000000,,2013-05-13 09:11:00,
2013-05-13 03:12:00,63.0,50.0,-100.00,ENE,61,3.0,6.0,61,-99.99,,,0.00,0.000000,,2013-05-13 10:12:00,
2013-05-13 04:12:00,62.0,50.0,-100.00,South,176,2.0,4.0,64,-99.99,,,0.00,0.000000,,2013-05-13 11:12:00,
2013-05-13 05:11:00,62.0,50.0,-100.00,South,172,2.0,7.0,65,-99.99,,,0.00,0.000000,,2013-05-13 12:11:00,
2013-05-13 06:11:00,62.0,49.0,-100.00,SE,141,2.0,6.0,61,-99.99,,,0.00,0.460000,,2013-05-13 13:11:00,
2013-05-13 07:11:00,62.0,47.0,-100.00,NNE,26,1.0,5.0,57,-99.99,,,0.00,37.540001,,2013-05-13 14:11:00,
2013-05-13 08:11:00,64.0,47.0,-100.00,ENE,78,6.0,8.0,53,-99.99,,,0.00,170.380005,,2013-05-13 15:11:00,
2013-05-13 09:11:00,66.0,48.0,-100.00,ENE,70,4.0,12.0,52,-99.99,,,0.00,255.679993,,2013-05-13 16:11:00,
2013-05-13 10:12:00,67.0,46.0,-100.00,West,267,2.0,8.0,45,-99.99,,,0.00,375.619995,,2013-05-13 17:12:00,
2013-05-13 12:11:00,66.0,43.0,-100.00,West,266,12.0,18.0,42,-99.99,,,0.00,173.169998,,2013-05-13 19:11:00,
2013-05-13 13:11:00,66.0,40.0,-100.00,West,269,12.0,26.0,38,-99.99,,,0.00,326.000000,,2013-05-13 20:11:00,
2013-05-13 14:14:00,66.0,37.0,-100.00,WSW,256,11.0,25.0,33,-99.99,,,0.00,161.309998,,2013-05-13 21:14:00,
2013-05-13 15:12:00,65.0,38.0,-100.00,WSW,243,5.0,18.0,37,-99.99,,,0.00,160.960007,,2013-05-13 22:12:00,
2013-05-13 16:12:00,66.0,40.0,-100.00,WSW,245,8.0,23.0,38,-99.99,,,0.00,767.750000,,2013-05-13 23:12:00,
2013-05-13 17:12:00,66.0,42.0,-100.00,WSW,240,5.0,19.0,40,-99.99,,,0.00,682.440002,,2013-05-14 00:12:00,
2013-05-13 18:11:00,64.0,46.0,-100.00,South,179,12.0,26.0,51,-99.99,,,0.00,71.239998,,2013-05-14 01:11:00,
2013-05-13 19:11:00,57.0,50.0,-100.00,WNW,302,6.0,11.0,77,-99.99,,,0.01,109.599998,,2013-05-14 02:11:00,
2013-05-13 20:11:00,61.0,46.0,-100.00,West,262,8.0,15.0,58,-99.99,,,0.01,101.919998,,2013-05-14 03:11:00,
2013-05-13 21:13:00,60.0,41.0,-100.00,West,277,15.0,26.0,49,-99.99,,,0.01,37.419998,,2013-05-14 04:13:00,
2013-05-13 22:12:00,55.0,35.0,-100.00,West,265,19.0,32.0,46,-99.99,,,0.01,0.120000,,2013-05-14 05:12:00,
2013-05-13 23:12:00,53.0,30.0,-100.00,West,268,19.0,33.0,40,-99.99,,,0.01,0.120000,,2013-05-14 06:12:00,